Theta_e
310 310 310 310 310 311 314 313 313 310 309 309 308 303 296 295 294 293 292 290 289 289 289 288 289 290 290 291 292 292 293 294 294 294 294 294 293 292 292 292 292 293 294 293
308 309 310 310 309 309 310 312 311 309 308 307 301 297 295 294 293 292 291 290 289 288 288 288 288 289 290 291 291 292 291 291 290 291 291 291 292 292 293 293 293 294 293 294
310 307 307 311 309 307 305 304 307 310 307 300 298 297 295 294 293 291 290 289 288 288 288 287 287 288 288 289 290 291 291 289 289 287 287 287 287 288 288 288 289 290 291 292
309 308 310 306 302 305 304 304 303 303 302 300 298 295 294 294 292 290 289 288 288 287 287 288 287 287 288 288 289 287 286 285 285 285 286 285 286 286 285 285 285 286 286 286
307 307 306 304 303 301 302 302 299 301 299 294 292 292 291 291 291 290 289 288 287 288 288 288 288 288 288 287 287 286 285 285 285 284 284 284 284 284 284 285 285 285 284 284
304 303 303 299 302 302 300 301 297 298 295 293 293 295 288 290 290 288 288 288 288 288 288 288 288 287 287 286 285 284 284 283 283 283 283 283 283 283 283 283 283 283 283 283
304 304 302 299 301 299 299 300 297 297 294 292 291 291 291 289 288 288 287 287 287 287 287 287 286 285 285 285 284 283 283 282 282 282 282 282 282 283 282 282 282 282 281 281
304 303 301 300 300 300 296 293 295 294 293 291 290 290 289 288 287 287 286 286 286 287 287 286 285 285 284 283 282 282 282 282 282 282 282 281 281 281 281 281 281 281 281 281
300 298 294 296 297 297 296 295 294 294 292 292 291 289 288 287 287 287 286 286 286 286 286 285 285 284 283 282 282 282 282 282 281 281 281 280 280 280 280 279 279 279 279 279
296 295 294 295 295 295 295 295 295 295 294 293 292 289 288 287 287 286 286 286 285 285 284 284 284 283 282 282 282 282 281 281 280 280 280 279 278 278 278 277 277 278 277 277
296 295 295 294 294 294 294 293 292 291 292 292 291 288 287 287 286 286 285 283 283 283 282 282 281 282 282 282 281 281 281 280 280 279 278 278 277 277 277 276 276 276 275 275
299 297 296 295 294 293 293 291 291 291 289 289 290 288 287 286 286 285 283 282 282 282 282 281 281 281 281 281 280 280 280 279 278 278 278 277 277 277 276 275 275 274 274 274
297 296 295 294 293 292 292 290 289 289 289 288 287 287 287 286 285 283 281 282 282 281 281 281 281 281 280 280 279 279 279 278 277 277 277 277 276 276 275 275 275 274 273 273
296 295 291 292 290 291 291 289 289 288 288 288 287 286 286 285 283 281 280 280 280 280 280 280 280 279 279 278 278 278 277 277 276 276 276 275 275 274 274 274 274 274 273 273
295 296 294 292 291 291 290 289 288 287 287 286 286 286 285 284 282 280 280 279 279 280 279 279 279 278 278 277 277 277 276 276 276 276 275 274 274 274 274 274 274 274 274 274
294 294 292 292 291 291 289 288 288 286 286 286 286 285 284 283 280 280 279 279 279 279 279 278 278 277 277 276 276 276 276 276 275 275 275 274 274 274 274 273 273 273 273 272
292 290 290 290 290 289 288 288 288 287 286 286 285 285 283 281 280 279 279 279 278 278 278 278 277 276 276 275 275 276 276 275 275 275 274 274 273 273 273 273 272 272 272 271
295 294 292 291 290 289 288 288 287 287 287 286 285 285 283 281 281 279 279 278 278 278 278 277 276 275 275 275 275 275 275 274 274 274 273 273 272 272 272 272 271 271 271 271
294 293 292 291 291 289 288 288 287 287 287 286 285 284 283 282 280 278 278 278 278 278 277 276 276 275 275 275 275 275 274 274 274 273 273 272 271 271 271 270 270 269 269 269
293 292 291 291 290 290 289 288 288 287 286 286 284 283 282 281 279 278 277 278 278 277 276 276 276 275 275 275 274 274 274 273 273 272 272 271 271 271 270 270 269 269 268 268
293 292 291 291 290 290 289 288 288 287 286 285 285 284 282 279 278 278 278 278 277 276 276 276 276 275 275 275 274 274 273 273 272 272 271 271 270 270 269 269 268 268 268 267
292 292 291 290 290 289 289 289 288 287 286 285 284 283 280 279 278 277 278 278 277 276 276 276 275 275 275 274 274 273 272 272 272 271 271 270 270 269 269 269 268 268 267 267
292 292 291 291 290 289 289 288 288 287 286 285 283 281 280 279 279 280 279 278 277 276 276 276 275 275 274 274 273 272 271 271 271 271 270 270 269 269 269 268 268 268 267 267
292 291 291 291 290 290 289 288 287 286 286 285 283 281 280 278 279 279 279 278 277 276 276 275 275 274 274 273 272 271 271 271 271 271 270 269 269 269 268 268 268 267 267 266
292 292 291 290 290 289 288 287 286 285 284 284 282 279 278 279 280 280 279 278 277 276 275 275 274 274 273 272 271 271 271 271 270 270 269 269 269 269 268 268 267 267 266 266
292 291 290 290 290 289 288 287 286 285 284 283 279 278 279 279 279 279 279 278 277 276 275 274 274 273 272 271 271 270 270 270 270 269 269 269 269 268 268 267 267 267 266 266
290 290 289 288 288 287 287 286 285 284 284 283 279 278 279 279 279 279 278 277 276 275 275 274 273 272 271 270 270 270 270 270 269 269 269 269 268 268 268 267 267 267 266 266
Wind_Speed
5 5 5 5 6 7 16 17 9 6 10 15 16 16 18 22 17 10 5 3 6 6 8 9 11 12 12 12 12 13 15 18 22 22 22 22 22 24 26 27 30 31 32 34
4 7 10 9 11 9 12 10 7 7 6 3 18 19 19 18 16 11 7 4 5 6 7 10 12 12 13 12 13 14 16 19 19 18 19 20 21 24 25 27 29 33 35 37
6 4 2 8 17 13 6 4 5 13 7 12 13 16 18 18 14 11 8 6 4 5 6 7 9 9 12 13 13 15 18 18 17 16 18 20 21 22 24 28 29 32 35 36
2 3 10 1 4 5 8 4 4 3 14 16 16 17 19 16 15 13 11 9 6 5 4 5 5 8 10 13 13 17 16 16 17 18 18 19 20 22 25 27 29 33 34 34
3 4 4 3 4 5 7 6 5 11 12 19 24 18 9 12 10 11 11 11 8 5 5 4 3 4 6 8 12 13 15 17 17 19 19 19 21 23 24 27 29 33 34 34
3 4 6 5 1 3 2 6 9 15 16 19 20 7 4 17 15 14 12 9 8 6 4 2 2 2 4 7 9 13 14 15 16 18 19 20 21 22 24 28 30 30 32 33
4 4 6 4 5 6 5 5 16 24 25 24 7 4 22 22 18 15 12 10 9 8 6 5 5 4 4 7 10 11 11 13 15 18 20 22 23 23 25 27 29 31 32 34
3 3 7 6 4 6 3 5 19 22 25 23 14 20 27 24 22 17 14 11 10 9 8 7 5 3 5 10 9 8 11 14 17 18 20 23 24 26 28 30 33 35 35 36
7 5 1 2 1 4 9 17 18 25 26 27 23 28 27 25 21 17 13 11 10 10 9 8 6 5 6 10 8 9 11 15 17 19 21 24 26 29 31 33 35 37 38 39
3 2 3 4 8 11 10 15 18 20 25 26 28 27 27 25 23 17 12 12 12 11 10 10 9 7 8 8 9 9 12 15 16 18 20 23 26 29 31 34 34 34 35 36
1 2 5 7 10 15 14 14 16 18 23 27 28 29 28 25 20 16 14 14 13 13 12 11 10 8 8 7 8 11 13 14 15 16 18 21 24 26 27 28 28 30 33 34
5 13 5 8 22 19 18 18 19 23 26 26 26 30 27 24 19 16 16 15 15 13 11 11 10 10 9 9 9 10 11 13 13 15 17 18 20 21 22 22 23 25 26 29
2 17 6 16 23 21 19 21 22 24 26 28 26 26 24 22 19 18 17 16 14 12 11 10 8 8 9 10 9 10 11 12 13 15 17 19 19 21 21 22 23 26 27 28
14 20 15 24 15 22 19 21 21 20 22 24 25 24 22 22 21 19 17 15 14 12 11 9 7 7 9 10 10 10 11 12 14 15 16 15 16 18 19 22 25 27 28 30
8 2 11 22 25 21 21 24 24 24 25 24 23 23 22 23 22 20 17 15 14 12 9 7 6 7 9 9 9 9 11 13 14 14 15 15 15 17 20 21 23 25 26 26
8 10 19 24 27 25 25 25 27 28 26 25 24 22 22 21 21 19 16 14 12 12 10 7 5 6 7 8 7 9 11 13 13 14 15 16 16 18 19 21 21 23 24 25
17 14 21 24 27 26 28 27 27 28 27 25 25 24 23 22 21 18 17 15 12 10 8 7 5 6 7 8 8 10 10 11 13 14 15 16 16 18 19 20 20 20 19 19
1 2 17 22 26 26 26 25 25 25 26 25 24 24 23 22 20 18 17 16 13 11 9 6 5 6 6 7 7 9 10 11 13 15 15 15 16 18 19 19 19 19 18 17
1 4 15 17 20 23 23 23 22 23 23 23 23 23 20 19 16 18 17 15 12 10 9 7 6 4 4 5 6 8 10 12 13 14 15 15 16 18 18 18 18 18 19 19
7 9 12 14 18 20 22 20 19 20 21 22 22 22 21 19 18 18 16 14 12 9 9 6 5 3 3 5 7 9 10 12 13 14 15 16 17 18 18 18 19 19 19 18
9 10 11 14 17 16 16 18 19 21 22 22 21 20 21 20 19 18 17 14 13 11 7 5 3 2 4 6 8 10 11 13 14 15 16 17 17 18 19 19 19 19 20 20
11 12 12 12 14 15 14 15 17 20 22 22 20 19 21 21 20 17 12 9 12 11 6 3 0 2 4 7 9 10 11 12 14 15 15 16 17 19 19 20 20 21 21 22
13 12 12 10 12 14 14 16 17 19 20 21 20 21 20 19 19 18 16 14 12 9 6 3 2 2 5 8 10 10 12 13 14 15 15 17 18 19 19 21 22 22 22 22
14 16 13 11 12 15 16 18 18 18 18 21 20 18 19 22 19 15 11 11 10 7 5 4 3 3 6 8 9 10 12 13 14 15 15 16 17 18 19 20 21 22 22 22
12 13 13 13 14 15 16 19 20 19 20 20 19 19 18 16 12 14 12 12 9 7 5 5 4 5 7 8 9 11 12 13 13 14 15 16 17 18 19 20 21 22 23 23
11 12 13 13 14 15 18 20 22 23 24 24 22 22 20 18 14 12 12 10 7 7 5 4 5 6 7 8 9 11 12 12 12 13 14 15 16 18 19 20 21 22 23 23
11 12 14 14 14 14 16 19 22 24 25 24 24 23 20 18 14 12 11 9 8 7 5 5 6 7 7 8 10 11 12 11 12 12 13 14 15 17 18 19 21 22 23 23
Wind_Direction
233 200 182 220 231 218 219 233 219 198 208 190 196 166 156 149 150 150 135 78 56 47 41 37 39 40 39 42 45 43 43 41 40 37 37 37 37 40 43 47 48 47 47 47
265 221 224 242 234 220 233 237 246 247 211 186 134 137 142 153 159 150 138 105 82 64 46 48 40 42 42 41 44 49 48 45 41 39 38 38 38 39 38 40 44 47 47 45
249 185 211 257 246 222 194 220 231 221 202 141 147 155 156 158 163 163 156 152 123 83 66 59 46 36 39 40 42 45 45 40 38 35 37 37 35 36 37 39 40 44 44 43
222 133 234 259 313 259 225 167 173 96 154 160 144 131 148 174 171 166 164 148 142 125 91 77 68 51 46 37 41 45 44 43 45 41 42 41 38 39 40 39 38 42 43 41
196 214 316 245 221 166 174 245 162 140 128 124 119 110 118 163 169 166 172 155 151 127 107 96 74 56 47 51 38 42 45 44 43 43 39 38 40 39 40 41 38 39 40 38
154 183 223 243 109 130 77 279 174 150 151 146 139 172 183 174 175 159 158 154 147 137 145 115 95 93 75 64 55 49 45 46 43 44 41 42 43 43 41 42 41 39 39 38
163 214 283 219 153 130 116 247 157 160 158 158 168 179 161 164 161 162 158 156 158 159 164 140 98 83 96 74 60 51 51 53 51 47 45 43 38 37 38 39 38 39 38 36
155 181 271 156 119 182 188 121 152 159 162 159 145 140 152 157 155 161 161 160 162 173 164 144 130 96 90 82 67 61 54 50 47 42 40 38 37 37 36 35 34 34 33 33
179 204 259 208 126 171 154 155 162 170 170 170 153 152 156 156 160 162 164 162 162 166 161 157 142 116 97 87 83 65 55 49 41 37 36 33 34 35 35 32 31 30 29 29
101 193 164 163 152 160 166 168 170 177 176 177 164 164 160 160 164 167 167 164 161 158 151 142 135 123 104 90 75 61 51 45 40 36 34 35 36 35 34 34 30 29 30 30
108 136 124 193 189 166 157 164 164 167 178 175 167 162 162 162 166 167 163 159 154 154 145 131 123 113 99 83 63 53 46 42 39 39 40 37 35 37 37 39 36 34 30 29
213 188 162 182 182 173 163 161 160 156 157 164 170 161 163 161 163 163 160 159 156 151 143 127 114 101 92 75 56 46 42 43 42 40 37 36 36 36 38 37 37 40 40 32
187 156 150 160 166 168 163 161 159 159 159 159 162 162 163 160 162 159 156 155 156 149 138 125 114 96 77 62 48 41 43 46 40 36 31 28 28 29 30 32 32 31 29 29
145 136 110 155 163 167 165 160 161 160 162 161 162 165 164 164 160 160 156 154 152 145 131 121 107 84 67 52 37 38 41 46 39 35 33 31 29 28 27 25 23 23 22 22
143 198 180 166 162 163 171 165 161 161 162 163 167 167 169 166 162 158 154 153 149 141 136 121 100 78 63 48 38 43 42 43 38 35 33 31 29 28 27 24 20 17 13 12
122 125 149 159 162 167 171 169 165 166 168 168 170 172 173 169 163 159 155 150 148 145 138 124 107 78 60 52 41 41 39 37 33 29 25 22 19 19 19 17 13 11 8 9
127 134 154 158 169 173 175 174 175 171 172 174 175 174 172 169 165 162 157 150 148 141 135 128 118 87 66 55 39 31 28 28 25 19 16 12 8 10 9 5 2 1 360 356
314 273 193 184 177 176 175 177 179 178 179 180 177 175 175 173 171 166 160 155 153 151 149 146 124 83 52 38 24 18 21 19 15 11 9 6 4 2 0 357 355 353 352 347
120 158 173 181 184 180 177 179 183 185 185 180 178 175 174 172 173 166 160 158 157 156 153 146 110 70 29 18 19 15 10 6 5 4 4 1 356 358 357 356 354 350 347 346
142 156 171 177 180 183 181 186 185 183 180 179 176 173 173 174 172 167 161 158 157 161 151 126 89 56 36 22 13 1 356 357 359 1 359 356 352 354 356 355 352 349 346 344
160 162 174 183 183 188 190 186 185 184 180 181 183 182 177 171 170 170 172 170 168 166 157 133 89 55 30 11 1 353 353 355 357 357 357 353 351 354 358 357 354 350 348 346
168 169 174 182 185 182 188 190 187 185 185 183 183 185 180 177 173 170 170 179 175 175 179 181 324 3 6 359 354 353 354 356 357 357 353 349 353 358 357 355 353 352 350 348
185 181 183 186 187 189 190 193 189 191 189 184 180 185 185 183 178 176 174 176 181 187 193 213 260 310 340 346 349 354 357 357 354 353 351 354 357 356 354 353 352 350 347 344
192 190 191 191 192 196 194 189 188 190 191 183 178 188 187 180 176 172 180 183 185 191 203 221 243 285 324 336 346 354 352 351 350 350 353 355 355 355 354 352 350 347 345 343
194 202 200 196 194 195 194 188 184 183 182 183 177 183 185 187 197 189 185 186 194 200 204 212 237 294 318 331 346 348 347 347 348 351 353 353 355 355 354 352 349 347 345 344
193 202 201 202 202 198 196 193 190 187 187 179 179 181 181 183 188 194 191 195 202 202 204 228 278 297 312 334 342 342 343 344 348 350 351 353 355 355 353 351 349 347 345 344
197 201 199 200 202 204 204 201 198 194 192 182 184 180 183 188 194 195 201 206 206 205 225 258 278 295 317 331 337 335 336 342 345 347 349 352 353 352 351 350 350 350 349 349